Weather History for Homerville, GA

Change the Weather History Date:

Friday, July 5, 2013

  Actual Average Record
Temperature  
Mean Temperature 80 °F -  
Max Temperature 89 °F 92 °F 97 °F (1957)
Min Temperature 71 °F 68 °F 61 °F (1967)
Cooling Degree Days 15    
Growing Degree Days 30 (Base 50)    
Moisture  
Dew Point 74 °F    
Average Humidity 92    
Maximum Humidity 100    
Minimum Humidity 59    
Precipitation  
Precipitation 0.00 in - - ()
Sea Level Pressure  
Sea Level Pressure 30.15 in    
Wind  
Wind Speed 3 mph (SE)    
Max Wind Speed 10 mph    
Max Gust Speed 22 mph    
Visibility 9 miles    
Events Rain , Thunderstorm    
Averages and records for this station are not official NWS values.
T = Trace of Precipitation, MM = Missing Value Source: NWS Daily Summary

Daily Weather History Graph

Daily Weather History Graph

Search for Another Location

Airport:

Trip Planner

Search our weather history database for the weather conditions in past years. The results will help you decide how hot, cold, wet, or windy it might be!

Date:

Astronomy

Jul. 05, 2013 Rise Set
Actual Time 6:32 AM EDT 8:38 PM EDT
Civil Twilight 6:05 AM EDT 9:06 PM EDT
Nautical Twilight 5:31 AM EDT 9:39 PM EDT
Astronomical Twilight 4:55 AM EDT 10:15 PM EDT
Moon 4:27 AM EDT (7/5) 6:35 PM EDT (7/5)
Length of Visible Light 15h 00m
Length of Day
14h 05m
Waning Crescent, 6% of the Moon is Illuminated
Jul 5
Waning Crescent
Jul 8
New
Jul 15
First Quarter
Jul 22
Full
Jul 29
Last Quarter

Hourly Weather History & Observations

Time (EDT) Temp. Heat Index Dew Point Humidity Pressure Visibility Wind Dir Wind Speed Gust Speed Precip Events Conditions
12:15 AM 73.4 °F - 73.4 °F 100% 30.16 in 10.0 mi ESE 3.5 mph - N/A   Clear
12:35 AM 73.4 °F - 73.4 °F 100% 30.16 in 10.0 mi ESE 3.5 mph - N/A   Clear
12:55 AM 71.6 °F - 71.6 °F 100% 30.16 in 10.0 mi Calm Calm - N/A   Clear
1:15 AM 71.6 °F - 71.6 °F 100% 30.16 in 10.0 mi Calm Calm - N/A   Scattered Clouds
1:35 AM 71.6 °F - 71.6 °F 100% 30.16 in 10.0 mi Calm Calm - N/A   Mostly Cloudy
1:55 AM 71.6 °F - 71.6 °F 100% 30.16 in 10.0 mi SE 3.5 mph - N/A   Overcast
2:15 AM 71.6 °F - 71.6 °F 100% 30.16 in 10.0 mi SE 3.5 mph - N/A   Mostly Cloudy
2:35 AM 71.6 °F - 71.6 °F 100% 30.15 in 10.0 mi SE 3.5 mph - N/A   Mostly Cloudy
2:55 AM 71.6 °F - 71.6 °F 100% 30.15 in 10.0 mi ESE 3.5 mph - N/A   Scattered Clouds
3:15 AM 71.6 °F - 71.6 °F 100% 30.14 in 10.0 mi ESE 3.5 mph - N/A   Mostly Cloudy
3:35 AM 71.6 °F - 71.6 °F 100% 30.14 in 7.0 mi ESE 3.5 mph - N/A   Overcast
3:55 AM 71.6 °F - 71.6 °F 100% 30.14 in 7.0 mi Calm Calm - N/A   Overcast
4:15 AM 71.6 °F - 71.6 °F 100% 30.14 in 7.0 mi Calm Calm - N/A   Mostly Cloudy
4:35 AM 71.6 °F - 71.6 °F 100% 30.15 in 10.0 mi Calm Calm - N/A   Mostly Cloudy
4:55 AM 71.6 °F - 71.6 °F 100% 30.15 in 10.0 mi East 3.5 mph - N/A   Mostly Cloudy
5:15 AM 71.6 °F - 71.6 °F 100% 30.16 in 10.0 mi Calm Calm - N/A   Scattered Clouds
5:35 AM 71.6 °F - 71.6 °F 100% 30.16 in 7.0 mi Calm Calm - N/A   Clear
5:55 AM 71.6 °F - 71.6 °F 100% 30.16 in 10.0 mi Calm Calm - N/A   Scattered Clouds
6:15 AM 71.6 °F - 71.6 °F 100% 30.15 in 7.0 mi Calm Calm - N/A   Mostly Cloudy
6:35 AM 71.6 °F - 71.6 °F 100% 30.16 in 5.0 mi Calm Calm - N/A   Overcast
6:55 AM 71.6 °F - 71.6 °F 100% 30.16 in 7.0 mi Calm Calm - N/A   Overcast
7:15 AM 71.6 °F - 71.6 °F 100% 30.17 in 5.0 mi Calm Calm - N/A   Overcast
7:35 AM 71.6 °F - 71.6 °F 100% 30.17 in 5.0 mi Calm Calm - N/A   Overcast
7:55 AM 71.6 °F - 71.6 °F 100% 30.18 in 7.0 mi Calm Calm - N/A   Overcast
8:15 AM 73.4 °F - 73.4 °F 100% 30.18 in 7.0 mi Calm Calm - N/A   Overcast
8:35 AM 73.4 °F - 73.4 °F 100% 30.19 in 10.0 mi Calm Calm - N/A   Mostly Cloudy
8:55 AM 73.4 °F - 73.4 °F 100% 30.19 in 10.0 mi Calm Calm - N/A   Scattered Clouds
9:15 AM 77.0 °F - 75.2 °F 94% 30.20 in 10.0 mi East 3.5 mph - N/A   Mostly Cloudy
9:35 AM 77.0 °F - 75.2 °F 94% 30.19 in 10.0 mi ESE 3.5 mph - N/A   Overcast
9:55 AM 78.8 °F - 75.2 °F 89% 30.19 in 10.0 mi ESE 4.6 mph - N/A   Overcast
10:15 AM 78.8 °F - 77.0 °F 94% 30.19 in 10.0 mi Calm Calm - N/A   Overcast
10:35 AM 80.6 °F 87.1 °F 77.0 °F 89% 30.19 in 10.0 mi ESE 4.6 mph - N/A   Overcast
10:55 AM 82.4 °F 90.9 °F 77.0 °F 84% 30.19 in 10.0 mi SSE 9.2 mph - N/A   Mostly Cloudy
11:15 AM 82.4 °F 90.9 °F 77.0 °F 84% 30.19 in 10.0 mi SSE 4.6 mph - N/A   Scattered Clouds
11:35 AM 86.0 °F 96.9 °F 77.0 °F 74% 30.18 in 10.0 mi SSE 8.1 mph - N/A   Mostly Cloudy
11:55 AM 84.2 °F 94.1 °F 77.0 °F 79% 30.18 in 10.0 mi SE 9.2 mph - N/A   Mostly Cloudy
12:15 PM 86.0 °F 96.9 °F 77.0 °F 74% 30.18 in 10.0 mi ESE 8.1 mph - N/A   Mostly Cloudy
12:35 PM 86.0 °F 93.4 °F 73.4 °F 66% 30.17 in 10.0 mi SE 10.4 mph - N/A   Scattered Clouds
12:55 PM 86.0 °F 93.4 °F 73.4 °F 66% 30.16 in 10.0 mi SSE 6.9 mph - N/A   Mostly Cloudy
1:15 PM 87.8 °F 95.6 °F 73.4 °F 62% 30.16 in 10.0 mi SSE 6.9 mph - N/A   Mostly Cloudy
1:35 PM 87.8 °F 97.6 °F 75.2 °F 66% 30.15 in 10.0 mi SSE 5.8 mph - N/A   Mostly Cloudy
1:55 PM 89.6 °F 102.2 °F 77.0 °F 66% 30.14 in 10.0 mi SSE 5.8 mph - N/A   Mostly Cloudy
2:15 PM 89.6 °F 98.2 °F 73.4 °F 59% 30.14 in 10.0 mi SSE 8.1 mph - N/A   Scattered Clouds
2:35 PM 89.6 °F 99.8 °F 75.2 °F 62% 30.12 in 10.0 mi ESE 6.9 mph 16.1 mph N/A   Scattered Clouds
2:55 PM 89.6 °F 99.8 °F 75.2 °F 62% 30.11 in 10.0 mi East 10.4 mph 16.1 mph N/A   Mostly Cloudy
3:15 PM 89.6 °F 102.2 °F 77.0 °F 66% 30.11 in 10.0 mi SE 6.9 mph - N/A   Mostly Cloudy
3:35 PM 80.6 °F 85.4 °F 73.4 °F 79% 30.12 in 7.0 mi South 10.4 mph 21.9 mph N/A Rain , Thunderstorm Rain
3:55 PM 78.8 °F - 73.4 °F 83% 30.12 in 10.0 mi SE 4.6 mph - N/A Thunderstorm Thunderstorm
4:15 PM 78.8 °F - 73.4 °F 83% 30.13 in 10.0 mi South 4.6 mph - N/A Thunderstorm Mostly Cloudy
4:35 PM 77.0 °F - 73.4 °F 89% 30.13 in 10.0 mi SSE 8.1 mph - N/A Rain , Thunderstorm Light Thunderstorms and Rain
4:55 PM 75.2 °F - 73.4 °F 94% 30.13 in 4.0 mi SSE 4.6 mph - N/A Rain Heavy Rain
5:15 PM 75.2 °F - 75.2 °F 100% 30.14 in 10.0 mi Calm Calm - N/A Rain , Thunderstorm Light Thunderstorms and Rain
5:35 PM 75.2 °F - 75.2 °F 100% 30.14 in 10.0 mi Calm Calm - N/A   Scattered Clouds
5:55 PM 77.0 °F - 75.2 °F 94% 30.14 in 10.0 mi Calm Calm - N/A   Scattered Clouds
6:15 PM 77.0 °F - 77.0 °F 100% 30.13 in 10.0 mi Calm Calm - N/A   Scattered Clouds
6:35 PM 77.0 °F - 75.2 °F 94% 30.13 in 10.0 mi Calm Calm - N/A   Clear
6:55 PM 77.0 °F - 77.0 °F 100% 30.14 in 10.0 mi Calm Calm - N/A   Clear
7:15 PM 77.0 °F - 77.0 °F 100% 30.14 in 10.0 mi Calm Calm - N/A   Scattered Clouds
7:35 PM 77.0 °F - 77.0 °F 100% 30.13 in 10.0 mi Calm Calm - N/A   Clear
7:55 PM 77.0 °F - 77.0 °F 100% 30.13 in 10.0 mi Calm Calm - N/A   Clear
8:15 PM 77.0 °F - 77.0 °F 100% 30.13 in 10.0 mi Calm Calm - N/A   Clear
8:35 PM 77.0 °F - 77.0 °F 100% 30.14 in 10.0 mi Calm Calm - N/A   Clear
8:55 PM 77.0 °F - 77.0 °F 100% 30.14 in 10.0 mi Calm Calm - N/A   Scattered Clouds
9:15 PM 77.0 °F - 77.0 °F 100% 30.15 in 7.0 mi Calm Calm - N/A Rain Heavy Rain
9:35 PM 75.2 °F - 75.2 °F 100% 30.15 in 7.0 mi East 3.5 mph - N/A   Scattered Clouds
9:55 PM 75.2 °F - 75.2 °F 100% 30.15 in 10.0 mi ESE 3.5 mph - N/A   Clear
10:15 PM 75.2 °F - 75.2 °F 100% 30.15 in 7.0 mi Calm Calm - N/A   Clear
10:35 PM 75.2 °F - 75.2 °F 100% 30.15 in 5.0 mi Calm Calm - N/A   Clear
10:55 PM 73.4 °F - 73.4 °F 100% 30.16 in 7.0 mi Calm Calm - N/A   Scattered Clouds
11:15 PM 75.2 °F - 75.2 °F 100% 30.16 in 7.0 mi Calm Calm - N/A   Scattered Clouds
11:35 PM 73.4 °F - 73.4 °F 100% 30.16 in 7.0 mi Calm Calm - N/A   Clear
11:55 PM 73.4 °F - 73.4 °F 100% 30.16 in 7.0 mi Calm Calm - N/A   Clear